GFSNW_sfc_30mbdewp_339.txt.gz
Dewpoint
47 46 46 48 51 50 49 48 40 51 41 20 33 22 30 26 23 24 20 22 23 22 26 26 24 22 22 27 25 18 20 24 16 18 22 21 20 19 20 15 14 19 19 15
46 46 46 47 52 50 47 46 47 50 43 6 20 25 20 21 16 26 24 22 22 22 20 24 26 25 27 28 25 23 22 22 9 14 20 24 21 22 20 22 22 16 15 16
45 46 45 47 52 50 49 46 42 45 46 38 26 20 13 5 22 27 25 24 24 21 19 23 25 25 28 29 28 31 29 29 18 14 23 25 20 21 21 20 18 18 20 23
44 46 45 47 51 51 47 46 41 40 37 38 38 36 29 13 9 26 25 24 23 21 18 22 25 27 28 29 30 29 30 26 27 27 24 22 21 22 22 21 22 18 23 27
43 45 45 48 51 51 46 44 44 37 30 29 35 33 32 31 21 24 23 23 30 24 23 25 27 28 29 27 27 27 30 23 25 24 23 21 22 23 24 25 25 27 27 28
43 45 44 48 52 49 44 45 48 43 35 27 33 31 32 30 28 27 27 25 31 29 30 30 30 31 31 27 26 26 26 23 22 17 26 21 18 23 24 26 28 27 23 29
42 45 45 49 52 49 47 49 48 43 35 23 26 31 34 29 28 25 36 31 29 33 37 32 30 31 30 26 25 28 26 26 26 19 20 17 23 28 28 27 29 30 31 31
43 44 44 48 51 50 48 48 48 46 37 36 25 29 31 34 37 35 35 36 38 38 31 26 22 23 22 28 30 26 28 28 28 22 20 25 30 32 30 25 28 32 30 31
44 44 45 49 51 51 49 48 48 48 39 40 43 37 32 33 33 34 34 36 39 35 32 26 21 16 25 20 26 29 32 31 25 28 22 22 30 35 35 30 25 33 31 31
44 43 45 49 51 50 49 48 50 49 41 44 44 37 33 34 34 34 35 33 31 35 29 26 24 23 27 21 22 23 26 29 25 27 25 30 36 36 31 14 19 33 32 31
44 44 47 50 51 50 49 46 50 49 43 43 44 44 42 41 36 31 35 33 34 31 26 26 28 27 27 25 25 25 25 26 27 29 26 25 38 34 27 32 36 35 36 36
43 45 48 50 50 50 50 47 50 51 44 43 46 45 45 45 45 41 42 34 41 37 30 33 30 27 33 29 26 36 30 30 30 29 29 39 40 36 38 37 36 37 36 36
44 46 49 50 50 50 50 47 48 44 42 42 43 42 43 44 45 47 41 43 45 42 43 42 40 35 36 30 34 35 36 37 36 35 38 36 35 38 39 38 38 37 37 36
45 47 49 49 49 50 50 48 48 42 40 38 39 42 41 43 44 44 45 44 45 44 40 36 35 33 38 35 35 35 36 35 35 37 36 35 34 37 37 38 37 36 36 36
46 48 48 48 49 50 49 48 47 46 36 37 38 40 41 44 44 43 43 42 41 40 35 32 32 38 37 38 35 30 34 33 30 29 37 37 35 35 37 37 36 35 35 34
48 49 49 49 49 49 45 41 44 47 43 37 35 42 41 43 43 42 42 43 42 41 39 38 39 42 37 34 31 37 37 38 38 38 40 36 35 35 34 34 34 34 33 33
49 49 49 48 49 44 39 38 43 47 43 38 36 37 40 42 42 42 39 40 41 39 38 36 37 38 37 36 31 36 38 39 39 37 34 33 33 32 34 34 34 34 33 34
49 49 48 49 48 46 45 46 48 45 39 38 34 35 37 40 37 37 41 36 36 39 38 38 37 37 37 33 36 37 40 38 36 37 39 34 35 35 34 34 33 33 33 33
48 48 48 47 44 42 44 46 43 43 35 35 33 32 33 40 40 39 38 36 31 38 35 35 36 34 33 35 38 38 40 37 36 36 36 35 34 34 33 33 33 32 32 32
48 46 41 39 44 46 42 38 36 34 36 37 33 36 34 38 37 36 35 36 35 29 33 38 35 34 38 40 41 41 41 38 37 34 34 34 34 34 33 33 33 32 32 30
43 39 39 45 46 38 36 33 31 33 31 35 36 36 36 39 32 35 36 33 35 30 34 34 32 32 38 40 39 40 39 39 38 36 36 36 36 35 35 34 33 32 30 29
41 44 45 43 36 32 28 29 32 30 28 34 35 36 38 40 38 35 34 31 33 26 36 34 30 33 39 38 37 37 39 39 38 38 38 37 37 36 34 32 31 30 28 27
41 39 38 32 32 27 25 25 28 28 31 36 37 37 38 37 36 34 32 30 29 33 32 30 30 38 38 37 36 35 36 35 35 34 34 34 32 32 32 31 30 28 26 24
34 32 29 26 27 27 26 27 28 30 33 36 36 35 34 35 32 31 28 30 33 28 27 27 34 38 38 36 35 34 33 33 32 32 32 32 32 31 31 31 30 26 25 23
31 29 23 27 28 29 29 30 31 35 37 36 34 33 34 32 30 30 32 31 26 26 25 28 35 37 36 34 34 33 32 32 31 32 31 31 31 30 30 30 29 26 24 23
34 30 27 30 28 29 30 30 34 37 37 35 33 30 29 29 29 28 26 26 23 25 29 34 36 36 35 34 34 34 33 32 31 31 31 30 30 29 29 29 28 28 25 24
31 32 33 31 29 29 31 33 35 38 34 30 30 24 24 30 26 25 26 25 26 31 34 35 36 36 36 36 35 34 32 31 30 30 30 29 29 29 29 28 28 28 26 25

GFSNW_sfc_30mbdewp_342.txt.gz
Dewpoint
42 46 46 46 48 50 47 47 36 51 39 15 30 13 28 28 22 26 22 24 22 23 27 25 22 22 24 29 25 15 22 22 16 19 23 23 22 20 20 15 15 21 19 16
43 46 46 46 49 50 46 45 47 50 40 3 15 22 21 22 14 26 24 23 23 22 24 23 25 24 27 29 25 21 21 20 8 17 20 25 20 22 21 23 21 18 16 17
45 45 46 45 48 50 49 45 40 45 45 33 19 14 12 2 18 25 25 25 24 20 21 25 25 25 29 30 30 33 30 29 15 12 20 25 20 22 22 20 18 19 20 24
45 45 45 44 49 50 48 46 40 42 39 39 38 33 26 10 12 27 25 23 23 20 18 24 26 27 28 27 29 30 28 25 26 24 22 23 23 23 23 22 23 18 25 27
45 45 45 44 50 51 46 43 43 36 31 35 34 34 30 26 9 24 23 22 26 23 22 24 26 28 28 25 26 27 27 22 25 23 23 23 22 23 24 25 26 27 26 26
44 44 45 44 50 50 44 44 47 40 32 33 31 30 29 32 29 29 28 28 27 26 29 30 31 31 30 28 25 26 25 22 19 18 24 21 18 23 24 26 28 27 24 29
44 44 44 44 48 50 45 49 47 42 34 26 30 31 29 31 29 26 34 32 26 32 36 31 30 30 29 26 26 29 25 25 24 16 19 13 22 28 28 27 29 30 31 32
43 43 44 44 47 51 48 48 48 45 36 34 27 29 31 35 37 35 34 36 37 35 30 24 20 20 19 28 30 27 29 28 27 20 20 23 27 30 31 27 27 32 29 31
42 43 44 44 47 51 49 48 49 48 38 39 43 33 33 32 33 33 34 37 38 34 29 24 17 11 22 21 27 33 32 30 26 26 21 21 27 35 35 30 23 33 30 30
43 43 43 44 47 51 49 48 49 49 41 43 44 35 33 35 35 33 34 32 31 33 29 24 21 20 26 21 20 23 25 27 24 26 24 27 34 37 29 12 21 33 32 31
44 44 43 44 48 51 49 47 48 49 42 42 44 44 42 39 36 32 35 31 32 29 26 25 26 25 27 24 26 26 24 24 26 28 26 25 38 34 27 31 36 35 35 35
44 44 43 45 49 50 49 46 50 50 43 42 46 44 45 45 44 39 39 32 37 31 28 29 29 27 32 27 27 36 27 28 28 29 28 38 39 36 38 37 36 36 36 35
44 44 44 47 50 50 49 48 48 45 42 41 41 41 43 44 45 47 38 43 44 42 43 40 38 33 34 28 33 34 35 37 35 36 38 36 36 38 37 39 38 37 37 35
44 44 45 48 50 50 50 48 48 43 40 38 38 42 41 44 45 45 45 44 44 43 39 35 34 33 38 34 35 35 35 35 35 36 36 35 34 38 36 37 37 36 36 34
44 44 47 49 49 49 50 49 48 48 37 37 38 40 42 44 44 43 43 42 40 38 34 31 33 37 36 37 34 31 33 33 32 30 37 36 35 36 37 36 35 36 35 34
44 44 47 49 48 50 48 44 45 48 43 37 34 41 42 42 42 41 41 42 41 40 37 37 39 41 36 32 27 35 37 38 37 38 38 35 35 35 35 35 35 35 34 33
43 45 48 48 48 48 41 39 43 47 42 37 35 36 40 41 40 41 39 39 39 38 37 36 37 38 37 34 25 36 37 39 40 37 34 33 33 33 34 34 34 34 34 35
44 47 48 49 49 47 44 45 46 44 38 36 33 35 37 39 36 36 40 36 36 38 37 37 35 37 36 32 35 37 39 37 36 37 38 34 35 34 34 34 33 32 33 33
48 49 49 48 47 43 43 44 42 41 35 34 33 32 32 39 39 38 37 35 30 37 34 35 35 33 31 34 37 38 38 35 36 36 35 35 33 33 33 33 32 32 32 31
48 48 43 40 44 45 42 38 35 34 35 35 32 34 34 37 36 35 34 35 33 27 32 37 34 32 36 40 40 41 41 37 36 34 33 33 33 32 33 32 33 32 31 30
44 40 40 45 46 38 35 33 33 32 30 34 35 35 35 38 32 33 35 32 34 30 33 33 32 32 37 39 38 39 39 38 37 36 35 34 34 33 33 32 32 31 30 29
43 44 45 42 36 31 29 30 32 30 28 33 35 36 37 38 37 34 33 31 32 27 35 34 30 32 38 37 37 37 38 38 37 36 35 36 35 35 33 32 31 30 28 26
43 39 37 34 31 25 24 24 27 28 30 35 37 37 37 36 35 33 31 29 28 32 32 31 30 37 37 37 36 36 36 36 35 34 33 33 32 32 32 30 27 26 24 23
35 34 30 27 25 25 25 26 28 30 32 36 36 35 34 33 31 31 27 29 32 29 27 27 32 37 36 35 35 34 33 33 33 32 32 31 31 30 30 28 25 25 24 21
31 29 24 26 27 29 28 30 31 34 37 35 34 33 33 31 30 29 32 30 27 27 24 27 33 36 35 34 34 33 32 32 31 32 31 31 31 30 30 28 25 23 22 21
32 29 27 29 28 28 29 30 34 37 36 34 32 30 28 29 28 28 26 26 23 24 27 32 35 35 34 34 34 33 33 32 32 32 31 31 30 29 29 27 25 23 23 22
31 31 31 28 28 28 29 33 35 38 33 28 28 25 25 30 27 25 27 25 25 27 33 35 35 35 34 34 34 33 32 32 31 31 30 30 30 29 28 27 27 25 23 23

GFSNW_sfc_30mbdewp_348.txt.gz
Dewpoint
47 46 45 45 45 49 47 47 31 52 44 18 22 8 19 28 23 27 23 26 26 26 26 24 23 21 25 29 27 19 27 24 18 21 23 23 23 23 21 16 18 22 17 24
47 44 46 45 45 49 47 41 44 51 48 6 10 19 19 24 19 26 24 24 26 28 27 25 24 26 30 31 28 24 23 23 17 20 23 23 22 23 23 24 22 21 14 24
46 44 45 45 45 50 50 45 37 42 37 27 14 12 6 13 12 24 27 25 26 28 28 29 27 25 29 32 32 33 33 28 23 17 23 22 22 20 19 17 14 19 21 25
45 45 46 44 46 50 49 45 39 41 26 25 22 18 9 7 23 28 27 24 23 25 26 27 27 26 26 28 30 32 31 26 25 23 23 23 22 20 16 19 21 18 23 25
46 46 45 44 47 50 48 44 41 39 38 36 25 25 16 2 17 26 24 23 24 25 24 23 26 26 27 25 27 28 30 26 24 22 22 21 21 22 23 24 24 23 22 25
46 46 45 44 50 49 46 46 48 40 34 35 24 22 20 18 21 31 30 26 26 26 31 33 34 35 34 32 27 29 27 26 23 20 23 21 20 25 25 26 26 24 19 27
46 46 44 44 50 49 47 49 48 39 31 32 24 26 28 25 23 28 32 32 27 34 35 33 32 32 31 31 32 32 26 25 22 23 22 19 26 29 27 27 27 26 26 29
46 45 44 44 47 50 50 49 48 44 33 29 30 30 31 36 34 34 34 38 40 36 33 26 23 23 23 28 31 30 30 26 28 24 18 23 26 29 29 27 27 28 27 31
46 45 44 44 45 49 49 49 49 49 39 35 38 32 30 33 31 34 38 40 39 38 28 23 22 18 17 22 25 30 31 29 22 30 23 16 27 33 34 31 25 30 31 32
46 44 44 44 45 49 48 48 51 49 44 44 44 33 30 37 35 32 36 36 35 39 25 21 21 18 24 22 20 23 25 24 24 23 25 28 33 31 31 21 27 34 34 34
46 44 43 44 45 49 48 48 50 48 45 45 45 45 41 38 37 31 39 34 34 31 23 23 27 23 25 25 25 24 23 26 25 27 26 27 37 31 27 34 38 36 37 37
45 44 43 44 45 49 49 46 51 50 47 45 47 45 45 45 45 40 40 37 35 34 30 32 32 30 31 27 25 33 25 29 27 31 31 40 39 36 38 38 37 38 38 38
45 43 43 43 45 49 49 48 50 49 44 42 42 42 44 46 47 49 39 42 41 41 44 36 36 33 33 28 30 32 36 37 35 36 37 37 38 39 38 38 38 38 38 37
45 43 43 43 45 48 50 48 50 47 43 41 41 44 44 46 48 48 48 47 47 45 42 44 43 40 40 35 37 35 36 37 37 38 37 38 37 37 38 38 38 37 37 37
45 44 43 43 44 48 50 51 50 49 44 41 40 43 44 44 46 47 48 46 43 40 41 40 41 40 40 39 38 36 35 37 34 34 38 38 38 38 38 37 36 36 37 37
46 44 44 43 45 49 48 43 48 48 49 42 39 43 42 42 43 43 43 43 43 41 42 42 42 43 39 38 34 36 38 38 38 40 41 40 39 38 37 36 36 36 37 37
45 44 44 44 47 50 45 43 47 49 48 43 40 39 41 42 41 41 40 42 40 40 41 41 40 39 39 36 32 36 38 40 40 39 39 38 37 36 37 36 36 37 37 37
45 44 45 46 49 48 45 48 48 48 41 39 37 38 40 41 38 39 40 39 41 41 40 41 38 39 39 35 32 37 38 39 38 38 38 38 37 37 36 36 36 36 36 35
45 46 47 48 47 45 46 47 47 46 40 39 36 36 37 40 40 39 38 38 39 40 39 37 37 36 34 31 36 38 38 39 38 37 36 36 36 36 36 36 35 34 34 35
45 42 42 40 45 45 42 41 41 41 40 40 35 37 37 39 38 37 38 38 36 33 36 39 36 30 35 40 41 42 39 39 38 36 35 36 35 35 34 34 34 34 34 35
37 39 39 45 46 44 40 36 37 38 34 37 36 36 35 38 35 35 36 36 35 27 33 33 30 27 33 40 41 41 41 38 38 38 37 37 36 35 35 34 35 35 35 35
39 44 46 44 40 37 36 35 35 34 30 36 35 36 37 39 40 35 37 33 35 27 36 35 28 33 39 40 40 41 40 39 38 38 37 37 36 36 35 35 35 35 34 30
46 42 36 36 32 31 31 29 30 31 33 37 37 37 38 37 37 36 34 31 32 36 33 29 29 37 39 39 39 38 39 38 38 38 39 38 37 38 37 34 33 31 29 28
39 35 30 32 31 29 29 26 29 33 35 35 36 37 37 37 35 34 29 32 34 31 28 27 33 38 38 38 38 37 37 37 36 35 35 34 32 31 31 31 30 28 27 26
36 36 31 31 30 30 32 33 33 35 37 37 35 36 34 33 31 32 31 30 28 27 22 31 38 38 37 36 37 36 35 34 35 35 33 32 31 30 29 29 29 27 26 26
31 32 29 29 31 32 33 33 35 38 37 33 32 32 30 28 29 29 28 24 18 23 30 37 38 37 37 36 36 36 36 35 35 35 34 33 32 31 30 29 27 27 26 25
32 31 31 31 29 31 34 35 36 39 34 30 30 27 26 30 27 24 26 25 27 34 36 38 38 37 36 36 35 35 35 35 34 34 34 33 32 31 29 27 27 26 25 26

GFSNW_sfc_30mbdewp_351.txt.gz
Dewpoint
48 47 46 45 44 48 47 43 33 50 48 23 14 9 18 27 23 25 24 25 20 19 19 19 18 18 24 26 27 19 26 22 16 19 21 20 21 20 18 17 16 19 16 28
47 47 46 45 44 48 45 36 40 48 46 14 10 18 17 25 22 24 24 24 26 26 22 23 23 25 28 27 27 26 25 20 16 19 22 22 21 19 19 19 19 13 15 28
47 46 45 45 44 49 49 39 34 32 31 27 20 6 15 21 18 24 26 25 27 27 26 26 26 25 27 29 29 33 35 24 21 19 21 17 19 16 13 12 14 15 19 28
47 46 45 45 44 50 49 43 31 33 22 20 18 10 6 17 22 26 26 25 24 25 26 26 25 25 24 26 29 30 29 24 21 18 19 17 15 14 15 16 16 18 21 24
46 46 45 45 45 50 49 39 34 39 33 24 20 15 5 13 23 24 23 23 23 25 26 24 26 24 24 23 24 25 28 26 23 20 18 18 17 18 20 20 21 20 20 26
46 46 45 44 45 49 44 46 47 43 34 27 19 16 13 6 24 31 28 24 23 26 30 33 33 34 32 29 26 26 26 26 23 19 18 18 21 22 22 23 23 21 19 24
47 46 45 44 48 49 49 49 47 36 30 24 19 20 16 9 25 26 30 30 27 34 34 33 32 30 29 28 28 27 25 25 21 21 20 22 27 26 25 26 25 23 23 25
47 45 44 44 48 49 50 50 49 41 29 27 27 20 23 20 29 34 33 38 35 35 30 25 24 25 25 26 26 24 25 23 24 24 21 21 23 25 25 26 25 24 24 27
46 45 44 44 46 50 50 50 51 49 30 29 28 24 28 26 22 33 38 40 40 39 23 19 20 19 17 20 23 24 23 28 23 29 23 17 25 27 31 29 26 27 28 30
46 45 44 44 45 48 49 49 53 49 43 44 41 31 29 33 27 21 36 37 37 40 19 16 20 17 18 19 20 22 22 23 23 23 24 27 30 30 30 26 30 32 31 31
46 45 44 44 45 48 48 50 51 49 44 46 45 44 38 37 35 30 36 33 34 24 22 20 24 20 20 22 22 23 23 24 24 22 24 29 33 29 28 35 36 34 34 37
46 45 44 44 45 47 48 47 51 51 46 46 47 46 46 47 47 45 40 32 27 27 24 26 27 24 29 21 21 28 24 29 26 32 35 37 35 36 36 36 35 36 37 38
46 44 43 44 45 47 49 49 51 49 44 44 45 44 46 47 48 51 42 40 40 40 45 32 33 30 29 26 26 25 34 34 33 32 37 36 36 36 36 36 37 38 37 37
46 44 44 44 45 48 49 49 51 49 44 44 43 45 45 46 48 48 49 49 48 45 39 44 43 34 40 31 36 32 33 34 35 37 36 36 35 36 37 36 37 37 37 37
45 44 43 44 45 47 49 51 50 49 46 42 42 44 45 46 47 47 48 46 42 37 41 45 40 38 38 39 38 34 35 33 34 33 38 36 37 37 37 36 36 36 37 37
45 43 43 44 45 47 49 44 48 49 49 42 40 43 43 44 45 45 45 44 42 39 41 41 41 43 41 36 32 36 37 39 41 39 39 40 39 37 36 36 36 37 37 37
45 44 44 44 46 49 46 44 49 49 48 45 41 40 41 42 42 42 42 42 42 40 41 41 38 37 39 37 33 36 38 40 42 42 41 39 37 36 37 37 37 37 37 37
45 44 44 45 46 48 46 49 49 50 43 41 41 40 40 42 40 40 41 40 41 42 40 40 36 38 38 36 31 37 39 40 40 40 40 39 37 37 37 37 37 36 36 35
44 44 45 43 44 45 45 48 48 48 42 39 38 37 39 41 41 40 38 39 42 41 40 37 36 35 35 29 32 37 38 39 39 39 38 37 38 37 37 37 37 35 35 36
45 39 38 39 45 47 46 45 42 43 41 39 36 39 39 40 39 39 41 40 39 37 37 39 36 33 32 35 34 38 39 40 39 38 37 37 37 36 36 36 35 35 35 36
36 35 39 46 47 45 42 38 38 40 37 39 36 34 37 40 38 38 37 37 36 32 32 33 32 28 31 39 42 41 41 40 39 40 39 38 37 37 36 35 35 36 38 37
35 43 46 46 43 39 37 35 38 38 32 35 35 35 36 38 38 36 37 32 33 27 35 35 28 29 38 40 41 42 40 40 40 40 38 38 37 37 37 36 37 39 37 33
43 42 40 39 34 32 32 32 33 34 34 34 36 36 37 35 35 35 35 31 31 36 34 29 24 38 39 40 41 41 40 40 39 39 40 42 41 40 40 38 36 34 31 31
38 33 31 33 31 33 31 30 29 33 35 36 35 35 36 35 32 34 30 30 33 31 30 26 30 38 39 40 41 40 40 40 41 41 39 37 36 35 34 34 33 31 29 30
35 36 32 33 34 32 30 28 33 33 35 35 35 33 33 32 32 31 31 31 29 25 19 28 38 39 39 39 40 40 40 39 38 37 35 34 33 33 32 33 33 30 30 30
35 38 31 32 32 34 34 33 34 34 35 35 29 29 29 27 29 29 29 23 17 22 30 40 39 38 39 38 39 38 37 37 36 35 35 35 34 34 33 33 31 30 29 28
35 32 32 33 34 36 36 34 35 38 35 30 26 25 24 25 27 24 22 23 30 38 39 39 39 39 38 38 38 38 38 37 37 36 36 35 35 34 32 30 29 29 28 28